TimeMDT,TemperatureF,Dew PointF,Humidity,Sea Level PressureIn,VisibilityMPH,Wind Direction,Wind SpeedMPH,Gust SpeedMPH,PrecipitationIn,Events,Conditions,WindDirDegrees,DateUTC
12:53 AM,53.1,48.0,83,29.81,10.0,NNW,6.9,-,0.01,,Overcast,340,2013-09-10 06:53:00
1:53 AM,53.1,48.0,83,29.81,10.0,NNE,6.9,-,0.00,,Overcast,20,2013-09-10 07:53:00
2:53 AM,51.1,48.0,89,29.83,8.0,North,6.9,-,0.01,Rain,Light Rain,10,2013-09-10 08:53:00
3:46 AM,51.8,48.2,88,30.13,8.0,NNE,6.9,-,0.01,,Overcast,20,2013-09-10 09:46:00
3:53 AM,51.1,48.0,89,29.83,3.0,North,9.2,-,0.02,Rain,Rain,10,2013-09-10 09:53:00
4:53 AM,50.0,48.9,96,29.84,5.0,NNE,4.6,-,0.08,Rain,Rain,20,2013-09-10 10:53:00
5:28 AM,50.0,48.2,94,30.12,2.5,NNW,5.8,-,0.06,Rain,Heavy Rain,340,2013-09-10 11:28:00
5:35 AM,50.0,48.2,94,30.12,3.0,NNW,3.5,-,0.07,Rain,Light Rain,330,2013-09-10 11:35:00
5:42 AM,50.0,48.2,94,30.12,4.0,NNW,3.5,-,0.08,Rain,Light Rain,340,2013-09-10 11:42:00
5:53 AM,50.0,48.9,96,29.83,5.0,Calm,Calm,-,0.09,Rain,Light Rain,0,2013-09-10 11:53:00
6:11 AM,50.0,48.2,94,30.12,2.5,SSW,3.5,-,0.05,Rain,Heavy Rain,200,2013-09-10 12:11:00
6:27 AM,50.0,48.2,94,30.12,3.0,NW,4.6,-,0.11,Rain,Rain,320,2013-09-10 12:27:00
6:53 AM,50.0,48.9,96,29.84,4.0,NNW,5.8,-,0.15,Rain,Light Rain,340,2013-09-10 12:53:00
7:44 AM,50.0,48.2,94,30.14,2.0,NNE,4.6,-,0.07,Rain,Light Rain,30,2013-09-10 13:44:00
7:53 AM,50.0,48.9,96,29.87,2.5,NE,4.6,-,0.07,Rain,Light Rain,50,2013-09-10 13:53:00
8:03 AM,50.0,48.2,94,30.14,6.0,ENE,4.6,-,0.00,Rain,Light Rain,60,2013-09-10 14:03:00
8:14 AM,50.0,48.2,94,30.14,1.8,ENE,4.6,-,0.03,Rain,Rain,70,2013-09-10 14:14:00
8:26 AM,50.0,48.2,94,30.14,2.0,NE,5.8,-,0.06,Rain,Rain,50,2013-09-10 14:26:00
8:36 AM,50.0,48.2,94,30.14,1.5,NE,6.9,-,0.10,Rain,Heavy Rain,50,2013-09-10 14:36:00
8:53 AM,50.0,48.9,96,29.88,2.5,NE,6.9,-,0.16,Rain,Rain,40,2013-09-10 14:53:00
9:00 AM,50.0,50.0,100,30.15,4.0,Calm,Calm,-,0.01,Rain,Light Rain,0,2013-09-10 15:00:00
9:25 AM,50.0,50.0,100,30.16,2.5,NE,4.6,-,0.09,Rain,Heavy Rain,40,2013-09-10 15:25:00
9:53 AM,50.0,50.0,100,29.88,1.8,Calm,Calm,-,0.22,Rain,Heavy Rain,0,2013-09-10 15:53:00
10:02 AM,50.0,50.0,100,30.16,1.2,West,4.6,-,0.05,Rain,Heavy Rain,270,2013-09-10 16:02:00
10:15 AM,50.0,50.0,100,30.16,0.8,WSW,4.6,-,0.15,Rain,Heavy Rain,250,2013-09-10 16:15:00
10:33 AM,50.0,50.0,100,30.17,0.8,Calm,Calm,-,0.30,Rain,Heavy Rain,0,2013-09-10 16:33:00
10:43 AM,50.0,50.0,100,30.17,1.2,West,3.5,-,0.33,Rain,Rain,270,2013-09-10 16:43:00
10:53 AM,51.1,50.0,96,29.89,1.5,WNW,3.5,-,0.36,Rain,Rain,290,2013-09-10 16:53:00
11:03 AM,51.8,50.0,94,30.17,2.5,Calm,Calm,-,0.01,Rain,Rain,0,2013-09-10 17:03:00
11:07 AM,51.8,50.0,94,30.17,1.5,Calm,Calm,-,0.02,Rain,Light Rain,0,2013-09-10 17:07:00
11:22 AM,51.8,50.0,94,30.17,2.0,Calm,Calm,-,0.05,Rain,Rain,0,2013-09-10 17:22:00
11:28 AM,51.8,50.0,94,30.17,2.5,Calm,Calm,-,0.06,Rain,Light Rain,0,2013-09-10 17:28:00
11:39 AM,51.8,51.8,100,30.17,3.0,NW,3.5,-,0.07,Rain,Light Rain,320,2013-09-10 17:39:00
11:53 AM,52.0,51.1,97,29.89,3.0,WNW,3.5,-,0.09,Rain,Light Rain,290,2013-09-10 17:53:00
12:00 PM,51.8,50.0,94,30.16,2.0,West,4.6,-,0.01,Rain,Light Rain,280,2013-09-10 18:00:00
12:11 PM,51.8,51.8,100,30.17,1.2,WSW,3.5,-,0.06,Rain,Heavy Rain,250,2013-09-10 18:11:00
12:20 PM,51.8,51.8,100,30.17,0.8,West,3.5,-,0.14,Rain,Heavy Rain,280,2013-09-10 18:20:00
12:34 PM,51.8,51.8,100,30.16,2.0,West,4.6,-,0.20,Rain,Light Rain,270,2013-09-10 18:34:00
12:39 PM,51.8,51.8,100,30.16,5.0,West,6.9,-,0.20,Rain,Light Rain,280,2013-09-10 18:39:00
12:53 PM,52.0,51.1,97,29.88,9.0,West,6.9,-,0.21,Rain,Light Rain,280,2013-09-10 18:53:00
1:07 PM,53.6,51.8,94,30.16,1.8,West,6.9,-,0.02,Rain,Rain,280,2013-09-10 19:07:00
1:09 PM,53.6,51.8,94,30.16,2.0,WNW,5.8,-,0.02,Rain,Rain,290,2013-09-10 19:09:00
1:28 PM,53.6,51.8,94,30.16,1.5,WNW,3.5,-,0.07,Rain,Rain,300,2013-09-10 19:28:00
1:39 PM,53.6,51.8,94,30.16,2.0,WNW,3.5,-,0.09,Rain,Light Rain,300,2013-09-10 19:39:00
1:50 PM,53.6,51.8,94,30.16,1.8,Calm,Calm,-,0.11,Rain,Rain,0,2013-09-10 19:50:00
1:53 PM,53.1,52.0,96,29.88,2.0,Calm,Calm,-,0.11,Rain,Light Rain,0,2013-09-10 19:53:00
2:02 PM,53.6,51.8,94,30.15,6.0,North,3.5,-,0.01,Rain,Light Rain,350,2013-09-10 20:02:00
2:53 PM,54.0,52.0,93,29.88,8.0,ESE,5.8,-,0.03,Rain,Light Rain,120,2013-09-10 20:53:00
3:09 PM,53.6,53.6,100,30.16,3.0,SSE,6.9,-,0.02,Rain,Light Rain,150,2013-09-10 21:09:00
3:17 PM,53.6,53.6,100,30.16,2.5,SSE,5.8,-,0.04,Rain,Rain,160,2013-09-10 21:17:00
3:24 PM,53.6,53.6,100,30.16,10.0,South,5.8,-,0.04,Rain,Light Rain,170,2013-09-10 21:24:00
3:36 PM,55.4,53.6,94,30.15,6.0,SSW,8.1,-,0.05,Rain,Light Rain,200,2013-09-10 21:36:00
3:53 PM,55.9,53.1,90,29.86,10.0,South,4.6,-,0.05,Rain,Light Rain,190,2013-09-10 21:53:00
4:06 PM,57.2,53.6,88,30.15,10.0,Calm,Calm,-,0.00,,Mostly Cloudy,0,2013-09-10 22:06:00
4:37 PM,57.2,51.8,82,30.14,10.0,West,3.5,-,0.00,,Overcast,270,2013-09-10 22:37:00
4:53 PM,57.9,54.0,87,29.86,10.0,ESE,3.5,-,0.00,Rain,Light Rain,120,2013-09-10 22:53:00
5:53 PM,57.9,52.0,81,29.87,10.0,SE,5.8,-,N/A,,Overcast,130,2013-09-10 23:53:00
6:53 PM,57.0,53.1,87,29.87,10.0,East,5.8,-,N/A,,Mostly Cloudy,100,2013-09-11 00:53:00
7:53 PM,55.0,54.0,96,29.90,10.0,SE,8.1,-,0.00,Rain,Light Rain,140,2013-09-11 01:53:00
8:04 PM,55.4,53.6,94,30.18,8.0,SE,3.5,-,0.01,Rain,Light Rain,140,2013-09-11 02:04:00
8:53 PM,54.0,53.1,97,29.92,10.0,NE,10.4,-,0.01,Rain,Light Rain,50,2013-09-11 02:53:00
9:53 PM,53.1,51.1,93,29.93,10.0,NE,6.9,-,0.01,,Overcast,40,2013-09-11 03:53:00
10:53 PM,51.1,48.9,92,29.94,10.0,NE,3.5,-,N/A,,Scattered Clouds,40,2013-09-11 04:53:00
11:53 PM,51.1,48.9,92,29.94,10.0,Calm,Calm,-,N/A,,Mostly Cloudy,0,2013-09-11 05:53:00